Renton, WA
on Tuesday, December 4, 2012

Tuesday
Previous Day Next Day
Daily Summary
 ActualAverage (KSEA)Record (KSEA)
Temperature
Mean Temperature °F 42°F  
Max Temperature 55°F 47°F 57°F (1989)
Min Temperature 48°F 36°F 21°F (1994)
Degree Days
Heating Degree Days 14 23  
Month to date heating degree days 92  
Since 1 July heating degree days 1275  
Cooling Degree Days 0 0  
Month to date cooling degree days 0  
Year to date cooling degree days 189  
Growing Degree Days2 (Base °F )  
Moisture
Dew Point 45°F   
Average Humidity 78    
Maximum Humidity 87    
Minimum Humidity 62    
Precipitation
Precipitation 0.51 in 0.19 in 1.41 in (1989)
Month to date precipitation 0.79  
Year to date precipitation 32.93  
Snow
Snow 0.00 in in 0.40 in (1956)
Month to date snowfall  
Since 1 July snowfall  
Snow Depth in   
Wind
Wind Speed 5 mph   
Max Wind Speed 12 mph   
Max Gust Speed 21 mph   
Visibility 9 miles   
Events Rain   

Key: T is trace of precipitation, MM is missing value
Source: NWS Daily Summary
Time(PST)TemperatureDew PointHumidity Pressure Visibility Wind DirectionWind SpeedGust SpeedPrecipitationEvents Conditions
12:53 AM 48.9°F 45.0°F 86% 29.62 in 6.0 miles Calm Calm - 0.09 in Rain Rain
1:53 AM 48.9°F 45.0°F 86% 29.57 in 7.0 miles Calm Calm - 0.17 in Rain Rain
2:53 AM 48.9°F 44.1°F 83% 29.56 in 6.0 miles ESE 6.9 mph - 0.05 in Rain Light Rain
3:45 AM 48.2°F 44.6°F 87% 29.53 in 7.0 miles ESE 4.6 mph - 0.01 in Rain Light Rain
3:53 AM 50.0°F 45.0°F 83% 29.55 in 8.0 miles SSE 4.6 mph - 0.01 in Rain Light Rain
4:53 AM 51.1°F 46.0°F 83% 29.57 in 10.0 miles SE 4.6 mph - 0.00 in   Overcast
5:35 AM 51.8°F 46.4°F 82% 29.58 in 8.0 miles Variable 3.5 mph - 0.00 in Rain Light Rain
5:53 AM 51.1°F 46.9°F 86% 29.61 in 7.0 miles SE 4.6 mph - 0.01 in Rain Light Rain
6:53 AM 55.9°F 48.9°F 77% 29.64 in 10.0 miles SSE 9.2 mph - 0.00 in Rain Light Rain
7:53 AM 55.0°F 50.0°F 83% 29.68 in 10.0 miles SSE 9.2 mph 18.4 mph 0.02 in Rain Light Rain
8:53 AM 55.0°F 48.9°F 80% 29.73 in 10.0 miles South 8.1 mph - 0.00 in   Overcast
9:53 AM 54.0°F 46.9°F 77% 29.76 in 10.0 miles South 8.1 mph - 0.01 in   Overcast
10:53 AM 55.0°F 46.0°F 72% 29.77 in 10.0 miles SSE 10.4 mph 18.4 mph N/A   Mostly Cloudy
11:53 AM 55.9°F 45.0°F 67% 29.77 in 10.0 miles South 11.5 mph 18.4 mph N/A   Clear
12:53 PM 55.9°F 44.1°F 64% 29.76 in 10.0 miles South 10.4 mph - 0.00 in   Overcast
1:53 PM 55.0°F 42.1°F 62% 29.75 in 10.0 miles SSE 11.5 mph - N/A   Overcast
2:53 PM 55.0°F 43.0°F 64% 29.74 in 10.0 miles SSE 10.4 mph 20.7 mph 0.00 in   Mostly Cloudy
3:53 PM 51.1°F 43.0°F 74% 29.78 in 4.0 miles South 8.1 mph 18.4 mph 0.01 in Rain Light Rain
4:53 PM 50.0°F 45.0°F 83% 29.76 in 10.0 miles Variable 4.6 mph - 0.00 in   Overcast
5:53 PM 51.1°F 45.0°F 80% 29.74 in 10.0 miles Calm Calm - 0.01 in   Overcast
6:53 PM 52.0°F 42.1°F 69% 29.74 in 10.0 miles South 8.1 mph - 0.00 in Rain Light Rain
7:53 PM 48.9°F 42.1°F 77% 29.77 in 9.0 miles SSE 8.1 mph 19.6 mph 0.11 in Rain Light Rain
8:53 PM 48.9°F 43.0°F 80% 29.78 in 10.0 miles SSE 8.1 mph - 0.00 in   Overcast
9:53 PM 48.9°F 43.0°F 80% 29.82 in 10.0 miles SE 6.9 mph - 0.00 in Rain Light Rain
10:53 PM 50.0°F 42.1°F 74% 29.84 in 10.0 miles SSE 6.9 mph - 0.00 in   Overcast
11:53 PM 48.9°F 42.1°F 77% 29.88 in 5.0 miles South 9.2 mph - 0.02 in Rain Light Rain
Moon Phase
Dec. 04 Dec. 06 Dec. 13 Dec. 20 Dec. 28
Sunrise:07:39 AM (PST) Moon Rise:10:28 PM (PST)12/4
Sunset:04:18 PM (PST) Moon Set:11:21 AM (PST)12/4

Copyright © 2014 The Weather Underground, Inc.